Weather observations for the past three days for
Laughlin Air Force Base Auxiliary Airfield
Metric (Imperial)
Date Time (cdt) Wind (kph) Vis. (km) Weather Sky Cond. Temperature (ºC) Relative Humidity Wind Chill (°C) Heat Index (°C) Pressure Precipitation (cm)
Air Dwpt 6 hour altimeter (cm) sea level (mb) 1 hr 3 hr 6 hr
Max. Min.
04 21:55 SE 17 16.09 Fair CLR 25.5 17.1 60% 26 75.54 1006.0
04 20:55 SE 20 16.09 Fair CLR 26.9 16.8 54% 28 75.51 1005.7
04 19:55 SE 26 16.09 Fair CLR 28.3 16.2 48% 29 75.51 1005.7
04 18:55 SE 22 16.09 Fair CLR 29.7 16.1 31 26.7 44% 30 75.51 1005.7
04 17:55 S 24 16.09 Fair CLR 30.4 16.4 43% 31 75.49 1005.4
04 16:55 SE 24 16.09 Fair CLR 30.4 16 42% 30 75.54 1006.0
04 15:55 S 28 16.09 Fair CLR 30.4 15.3 40% 30 75.62 1007.0
04 14:55 SE 20 G 33 16.09 Fair CLR 29.6 15.3 42% 29 75.72 1008.4
04 13:55 S 20 G 31 16.09 A Few Clouds FEW190 28.5 15.7 46% 29 75.77 1009.1
04 12:55 SE 26 16.09 Partly Cloudy FEW140 SCT170 26.6 15.6 26.6 16.3 51% 27 75.84 1010.1
04 11:55 S 19 16.09 Fair CLR 25.5 15.8 55% 26 75.87 1010.5
04 10:55 SE 22 16.09 Fair CLR 0 0 0% 75.95 0.0
04 09:55 SE 22 16.09 Partly Cloudy SCT017 20.7 15.5 72% 75.95 1011.6
04 08:55 SE 20 16.09 Overcast OVC016 19.2 15.1 77% 75.95 1011.6
04 07:55 E 19 16.09 Overcast OVC017 17.5 14.2 81% 75.92 1011.2
04 06:55 E 11 16.09 Fair CLR 16.4 13.7 19.2 16.4 84% 75.92 1011.3
04 05:55 E 15 16.09 Mostly Cloudy BKN150 16.9 13.6 81% 75.9 1010.9
04 04:55 E 17 16.09 A Few Clouds FEW160 17.3 13.6 79% 75.92 1011.2
04 03:55 E 15 16.09 Partly Cloudy SCT170 17.5 13 75% 75.95 1011.5
04 02:55 SE 11 16.09 Partly Cloudy SCT180 18.4 12.2 67% 76 1012.2
04 01:55 E 11 16.09 Partly Cloudy SCT190 18.7 11.5 63% 76.02 1012.6
04 00:55 SE 13 16.09 Fair CLR 18.7 11.7 26.7 18.7 64% 76.02 1012.6
03 23:55 SE 9 16.09 Fair CLR 19.7 11.7 60% 76.07 1013.3
03 22:55 E 9 16.09 Fair CLR 21.2 11.2 53% 76.1 1013.6
03 21:55 SE 11 16.09 Mostly Cloudy BKN210 22.3 10.7 48% 76.12 1014.0
03 20:55 SE 11 16.09 Fair CLR 22.9 11.3 48% 76.07 1013.4
03 19:55 S 15 16.09 Fair CLR 25.4 9.2 36% 26 76.07 1013.3
03 18:55 S 24 16.09 Fair CLR 26.7 8.6 27.6 24.2 32% 26 76.07 1013.3
03 17:55 S 22 16.09 Fair CLR 27.4 9.2 32% 27 76.1 1013.7
03 16:55 S 19 G 31 16.09 Fair CLR 27.2 8.1 30% 27 76.12 1014.1
03 15:55 S 17 16.09 Fair CLR 27 7.4 29% 26 76.25 1015.7
03 14:55 S 9 G 35 16.09 A Few Clouds FEW180 26.4 6.9 29% 26 76.35 1017.1
03 13:55 S 24 G 33 16.09 A Few Clouds FEW140 FEW170 FEW190 25.5 8.5 34% 26 76.4 1017.8
03 12:55 SE 17 16.09 A Few Clouds FEW200 24.1 8.9 24.3 14.5 38% 25 76.5 1019.2
03 11:55 S 20 G 31 16.09 Fair CLR 23.5 8 37% 76.61 1020.5
03 10:55 SE 17 16.09 Fair CLR 22.2 9.7 45% 76.61 1020.6
03 09:55 SE 7 16.09 Fair CLR 19.9 11.1 57% 76.66 1021.2
03 08:55 SE 13 16.09 Mostly Cloudy BKN160 17.8 10.4 62% 76.63 1020.9
03 07:55 E 7 16.09 Overcast OVC160 16.1 10.6 70% 76.61 1020.6
03 06:55 E 7 16.09 Overcast OVC160 14.6 11 16.7 13.6 79% 76.56 1019.9
03 05:55 Calm 16.09 Overcast BKN140 OVC160 14.4 11.2 81% 76.5 1019.3
03 04:55 E 6 16.09 Overcast SCT140 OVC160 13.9 11.2 84% 76.5 1019.3
03 03:55 NE 6 16.09 Fair CLR 14 11 82% 76.56 1019.9
03 02:55 NE 7 16.09 Fair CLR 14.7 11.1 79% 76.5 1019.3
03 01:55 SE 11 16.09 Fair CLR 15.5 11.3 76% 76.5 1019.3
03 00:55 E 7 16.09 Partly Cloudy SCT130 16.8 11.5 24.7 16.7 71% 76.56 1019.9
02 23:55 SE 9 16.09 Fair CLR 17.9 11 64% 76.53 1019.6
02 22:55 S 7 16.09 Fair CLR 18.7 11 61% 76.5 1019.3
02 21:55 S 11 16.09 Fair CLR 19.9 11.4 58% 76.45 1018.6
02 20:55 SE 9 16.09 Fair CLR 21.4 11.1 52% 76.4 1018.0
02 19:55 SE 7 16.09 Fair CLR 23.5 9.5 41% 76.35 1017.2
02 18:55 SE 7 16.09 Fair CLR 24.8 7.9 25.1 21.5 34% 25 76.33 1016.9
02 17:55 Calm 16.09 Fair CLR 24.8 7.9 34% 25 76.35 1017.1
02 16:55 Calm 16.09 Mostly Cloudy BKN065 23.7 8.5 38% 76.4 1017.9
02 15:55 S 6 16.09 A Few Clouds FEW200 23.7 8.1 37% 76.43 1018.2
02 14:55 N 11 16.09 Overcast OVC065 23.3 8.2 38% 76.5 1019.3
02 13:55 W 6 16.09 Mostly Cloudy SCT060 SCT140 BKN170 BKN200 22.5 8.6 41% 76.56 1019.9
02 12:55 Calm 16.09 Mostly Cloudy BKN055 21.8 8.3 21.8 13.2 42% 76.61 1020.7
02 11:55 E 11 16.09 Fair CLR 20.8 8.1 44% 76.63 1021.1
02 10:55 N 9 16.09 Fair CLR 19.3 8 48% 76.66 1021.4
02 09:55 N 7 16.09 Fair CLR 17.5 8.6 56% 76.66 1021.5
02 08:55 NW 11 16.09 Fair CLR 15.5 9.4 67% 76.63 1021.2
02 07:55 N 11 16.09 Overcast OVC160 13.3 9.5 78% 76.56 1020.2
02 06:55 N 15 16.09 Overcast OVC160 13.6 9.6 14.5 13.6 77% 76.5 1019.4
02 05:55 N 19 16.09 Overcast BKN070 OVC090 14 10.2 78% 76.48 1019.0
02 04:55 NW 15 16.09 Overcast OVC070 14.4 10.4 77% 76.48 1019.0
02 03:55 NW 15 16.09 Overcast OVC060 14.4 10.8 79% 76.45 1018.7
02 02:55 NW 11 16.09 Overcast OVC055 14.3 11.3 82% 76.43 1018.4
02 01:55 N 6 16.09 Mostly Cloudy BKN060 14.3 10.7 79% 76.43 1018.4
02 00:55 N 9 16.09 A Few Clouds FEW024 FEW060 14.6 11.4 20.6 14.6 81% 76.4 1018.0
01 23:55 N 20 16.09 Overcast OVC023 15.9 11.1 73% 76.38 1017.6
01 22:55 N 17 16.09 Overcast OVC023 16.1 11 72% 76.33 1017.0
Date Time (cdt) Wind (kph) Vis. (km) Weather Sky Cond. Air Dwpt Max. Min. Relative Humidity Wind Chill (°C) Heat Index (°C) altimeter (cm) sea level (mb) 1 hr 3 hr 6 hr
6 hour
Temperature (ºC) Pressure Precipitation (cm)